CW8425 Bordeaux FR current weather conditions

sailwx.info

Wind from 229 at 2 knots gusting 5

Air temperature 7.8° C
Dewpoint 6.2° C

Last reported at 2017-Dec-18 08:05 UTC.
Time now 2017-Dec-18 09:15 UTC

Location: N 44°44' W 000°39'.
View on Google Maps.

See reports from other nearby stations

  
Tides and Currents Weather Stations Pressure Air Temp Water Temp Dewpoint Dewpoint Depression Visibility Wind Speed Wind Dir Waves Ship Positions
date/time (UTC)wind fromknots sea level pressurealtimeterstation pressurevisibilityair tempwater tempwave heightnotes
2017-Dec-18 08:05 229 2 gusting 5 7.8
2017-Dec-18 07:55 225 1 gusting 4 7.2
2017-Dec-18 07:45 233 0 gusting 3 7.2
2017-Dec-18 07:35 212 0 gusting 3 7.2
2017-Dec-18 07:25 225 1 gusting 3 7.2
2017-Dec-18 07:16 225 0 gusting 4 7.2
2017-Dec-18 07:05 228 2 gusting 4 7.2
2017-Dec-18 06:55 240 1 gusting 4 7.2
2017-Dec-18 06:45 244 2 gusting 5 7.2
2017-Dec-18 06:35 226 2 gusting 4 7.2
2017-Dec-18 06:26 229 3 gusting 5 7.2
2017-Dec-18 06:15 234 2 gusting 6 7.2
2017-Dec-18 06:05 227 2 gusting 3 7.2
2017-Dec-18 05:55 225 1 gusting 5 7.2
2017-Dec-18 05:45 210 3 gusting 5 7.2
2017-Dec-18 05:35 210 1 gusting 4 7.2
2017-Dec-18 05:25 205 2 gusting 5 7.2
2017-Dec-18 05:15 192 1 gusting 4 7.2
2017-Dec-18 05:05 199 1 gusting 3 7.2
2017-Dec-18 04:55 208 1 gusting 3 6.7
2017-Dec-18 04:45 230 0 gusting 1 6.7
2017-Dec-18 04:35 247 6.7
2017-Dec-18 04:26 231 0 gusting 3 6.7
2017-Dec-18 04:16 241 6.7
2017-Dec-18 04:05 247 6.7
2017-Dec-18 03:55 247 6.7
2017-Dec-18 03:46 262 0 gusting 1 6.7
2017-Dec-18 03:36 212 1 gusting 3 6.1
2017-Dec-18 03:27 221 0 gusting 3 6.1
2017-Dec-18 03:16 225 6.1
2017-Dec-18 03:05 225 6.1
2017-Dec-18 02:58 225 6.1
2017-Dec-18 02:45 225 6.1
2017-Dec-18 02:35 225 6.1
2017-Dec-18 02:26 225 6.1
2017-Dec-18 02:16 225 5.6
2017-Dec-18 02:06 243 0 gusting 1 5.6
2017-Dec-18 01:55 235 0 gusting 3 5.6
2017-Dec-18 01:46 225 5.6
2017-Dec-18 01:35 225 1 gusting 3 5.6
2017-Dec-18 01:26 225 1 gusting 3 5.6
2017-Dec-18 01:15 231 1 gusting 3 5.0
2017-Dec-18 01:05 238 0 gusting 1 5.0
2017-Dec-17 21:26 247 0 gusting 1 5.6
2017-Dec-17 21:16 247 0 gusting 1 5.6
2017-Dec-17 21:05 232 0 gusting 1 5.6
2017-Dec-17 19:37 247 4.4
2017-Dec-17 19:26 4.4
2017-Dec-17 19:16 247 4.4
2017-Dec-17 19:06 4.4
2017-Dec-17 18:55 5.0
2017-Dec-17 18:46 5.0
2017-Dec-17 18:35 5.0
2017-Dec-17 18:25 247 0 gusting 0 5.6
2017-Dec-17 18:17 5.6
2017-Dec-17 18:06 247 6.1
2017-Dec-17 17:26 7.2
2017-Dec-17 17:16 7.8
2017-Dec-17 17:05 247 8.3
2017-Dec-17 16:56 258 8.3
2017-Dec-17 16:46 268 8.9
2017-Dec-17 16:35 247 8.9
2017-Dec-17 16:25 270 0 gusting 1 9.4
2017-Dec-17 16:15 242 1 gusting 3 9.4
2017-Dec-17 16:05 247 0 gusting 1 9.4
2017-Dec-17 15:55 287 9.4
2017-Dec-17 15:46 260 0 gusting 1 10.0
2017-Dec-17 15:35 247 0 gusting 1 10.0
2017-Dec-17 15:25 242 0 gusting 1 10.0
2017-Dec-17 15:16 238 0 gusting 3 10.0
2017-Dec-17 15:05 247 0 gusting 1 10.0
2017-Dec-17 14:55 240 0 gusting 1 10.0
2017-Dec-17 14:46 244 2 gusting 3 10.0
2017-Dec-17 14:35 238 1 gusting 3 10.0
2017-Dec-17 14:25 247 0 gusting 3 10.0
2017-Dec-17 14:15 297 2 gusting 4 10.0
2017-Dec-17 14:05 287 1 gusting 4 10.0
2017-Dec-17 13:56 289 3 gusting 4 10.0
2017-Dec-17 13:45 270 2 gusting 4 10.6
2017-Dec-17 13:36 311 4 gusting 5 10.0
2017-Dec-17 13:26 284 1 gusting 3 10.0
2017-Dec-17 13:16 304 3 gusting 6 10.6
2017-Dec-17 13:08 270 1 gusting 4 10.0
2017-Dec-17 12:56 255 1 gusting 5 10.0
2017-Dec-17 12:46 270 2 gusting 3 10.0
2017-Dec-17 12:36 284 2 gusting 4 9.4
2017-Dec-17 12:26 310 2 gusting 4 8.9
2017-Dec-17 12:16 281 0 gusting 3 8.9
2017-Dec-17 12:05 267 8.3
2017-Dec-17 11:56 258 0 gusting 3 8.3
2017-Dec-17 11:45 240 0 gusting 3 8.3
2017-Dec-17 11:35 262 0 gusting 1 7.8
2017-Dec-17 11:26 278 1 gusting 3 7.2
2017-Dec-17 11:15 268 0 gusting 1 7.2
2017-Dec-17 11:06 232 2 gusting 3 6.7
2017-Dec-17 10:56 234 1 gusting 3 6.7
2017-Dec-17 10:45 238 0 gusting 3 6.1
2017-Dec-17 10:36 228 1 gusting 4 5.6
2017-Dec-17 10:26 242 1 gusting 3 5.0
2017-Dec-17 10:16 225 1 gusting 3 5.0
2017-Dec-17 10:05 232 1 gusting 5 4.4
2017-Dec-17 09:55 233 1 gusting 4 3.9
2017-Dec-17 09:45 245 0 gusting 3 3.9
2017-Dec-17 09:35 257 0 gusting 1 3.3
2017-Dec-17 09:25 258 1 gusting 4 3.3
2017-Dec-17 09:16 243 0 gusting 3 2.8
2017-Dec-17 09:06 229 0 gusting 3 2.8
2017-Dec-17 08:55 225 2.8
2017-Dec-17 08:45 240 0 gusting 1 2.2
2017-Dec-17 08:35 239 0 gusting 3 2.2
2017-Dec-17 08:25 225 1 gusting 4 2.2
2017-Dec-17 08:15 221 1 gusting 4 1.7
2017-Dec-17 08:05 207 1 gusting 3 1.7
2017-Dec-17 07:55 211 1 gusting 4 1.1
2017-Dec-17 07:45 225 0 gusting 3 1.1
2017-Dec-17 07:35 212 0 gusting 3 1.1
2017-Dec-17 07:25 217 0 gusting 3 0.6
2017-Dec-17 07:15 225 0 gusting 1 0.6
2017-Dec-17 07:05 225 0 gusting 1 -0.0
2017-Dec-17 06:56 209 0 gusting 1 -0.0
2017-Dec-17 06:48 239 -0.0
2017-Dec-17 06:35 -0.0
2017-Dec-17 06:21 0.6
2017-Dec-17 06:10 0.6
2017-Dec-17 05:56 247 -0.0
2017-Dec-17 05:45 235 0 gusting 1 -0.0
2017-Dec-17 05:35 225 -0.0
2017-Dec-17 05:25 225 -0.0
2017-Dec-17 05:15 -0.0
2017-Dec-17 05:05 225 -0.0
2017-Dec-17 04:56 225 -0.0
2017-Dec-17 04:45 225 -0.0
2017-Dec-17 04:35 225 -0.0
2017-Dec-17 04:25 202 -0.0
2017-Dec-17 04:15 202 -0.0
2017-Dec-17 04:05 202 -0.6
2017-Dec-17 03:55 225 -0.6
2017-Dec-17 03:45 -0.6
2017-Dec-17 03:35 -0.6
2017-Dec-17 03:25 251 0 gusting 1 -1.1
2017-Dec-17 03:16 270 -1.1
2017-Dec-17 03:00 -1.1
2017-Dec-17 02:51 -1.7
2017-Dec-17 02:41 -1.7
2017-Dec-17 02:30 270 -1.7
2017-Dec-17 02:20 270 -1.7
2017-Dec-17 02:10 -1.7
2017-Dec-17 02:00 -1.7
2017-Dec-17 01:51 -1.7
2017-Dec-17 01:41 270 -1.7
2017-Dec-17 01:30 270 -1.7
2017-Dec-17 01:22 270 -1.7
2017-Dec-17 01:10 -1.7
2017-Dec-17 01:02 270 -1.7
2017-Dec-17 00:50 270 -1.7
2017-Dec-17 00:40 -1.7
2017-Dec-17 00:30 279 -1.7
2017-Dec-17 00:21 292 -1.7
2017-Dec-17 00:11 -1.7
2017-Dec-17 00:00 292 -1.1
2017-Dec-16 23:51 -1.1
2017-Dec-16 23:41 -1.1
2017-Dec-16 23:31 -1.1
2017-Dec-16 23:15 -1.1
2017-Dec-16 23:06 -1.1
2017-Dec-16 22:55 -1.1
2017-Dec-16 22:45 -1.1
2017-Dec-16 22:35 -1.1
2017-Dec-16 22:25 292 -1.1
2017-Dec-16 22:15 -1.1
2017-Dec-16 22:06 -1.1
2017-Dec-16 21:56 -0.6
2017-Dec-16 21:46 -1.1
2017-Dec-16 21:35 292 -1.1
2017-Dec-16 21:25 -1.1
2017-Dec-16 21:17 292 -1.1
2017-Dec-16 21:05 292 -1.1
2017-Dec-16 20:56 292 -0.6
2017-Dec-16 20:48 -0.6
2017-Dec-16 20:35 292 -0.6
2017-Dec-16 20:26 -0.6
2017-Dec-16 20:15 -0.6
2017-Dec-16 20:06 292 -0.0
2017-Dec-16 19:55 -0.0
2017-Dec-16 19:46 292 -0.0
2017-Dec-16 19:35 302 -0.0
2017-Dec-16 19:25 0.6
2017-Dec-16 19:15 315 0.6
2017-Dec-16 19:05 315 1.1
2017-Dec-16 18:56 315 1.1
2017-Dec-16 18:45 315 1.7
2017-Dec-16 18:35 315 1.7
2017-Dec-16 18:26
2017-Dec-16 18:16
2017-Dec-16 18:06
2017-Dec-16 18:00
2017-Dec-16 17:45
2017-Dec-16 17:39
2017-Dec-16 17:25 4.4
2017-Dec-16 17:12 5.0
2017-Dec-16 17:01 5.6
2017-Dec-16 16:50 328 5.6
2017-Dec-16 16:41 315 6.1
2017-Dec-16 16:31 337 0 gusting 1 6.1
2017-Dec-16 16:20 337 6.7
2017-Dec-16 16:10 332 0 gusting 1 6.7
2017-Dec-16 16:00 337 0 gusting 3 7.2
2017-Dec-16 15:50 327 1 gusting 3 7.8
2017-Dec-16 15:41 356 1 gusting 4 7.8
2017-Dec-16 15:33 346 2 gusting 5 8.3
2017-Dec-16 15:21 315 8.3
2017-Dec-16 15:10 310 0 gusting 3 8.3
2017-Dec-16 15:01 315 0 gusting 1 8.3
2017-Dec-16 14:52 320 0 gusting 1 8.3
2017-Dec-16 14:40 343 0 gusting 1 7.8
2017-Dec-16 14:30 8.3
2017-Dec-16 14:21 8.3
2017-Dec-16 14:10 339 2 gusting 4 8.9
2017-Dec-16 14:00 343 1 gusting 3 8.9
2017-Dec-16 13:53 334 1 gusting 4 8.9
2017-Dec-16 13:42 316 1 gusting 7 8.9
2017-Dec-16 13:33 002 2 gusting 5 8.9
2017-Dec-16 13:21 023 0 gusting 3 10.0
2017-Dec-16 13:12 010 1 gusting 3 9.4
2017-Dec-16 13:04 045 1 gusting 4 8.9
2017-Dec-16 12:52 8.3
2017-Dec-16 12:44 8.3
2017-Dec-16 12:31 354 1 gusting 4 8.3
2017-Dec-16 12:20 8.3
2017-Dec-16 12:10 329 4 gusting 6 8.3
2017-Dec-16 12:03 324 2 gusting 5 7.8
2017-Dec-16 11:50 011 2 gusting 5 7.8
2017-Dec-16 11:40 332 2 gusting 4 7.2
2017-Dec-16 11:30 331 2 gusting 5 7.2
2017-Dec-16 11:21 344 1 gusting 4 6.7
2017-Dec-16 11:10 343 3 gusting 6 6.1
2017-Dec-16 11:01 318 2 gusting 6 5.6
2017-Dec-16 10:51 334 1 gusting 5 5.6
2017-Dec-16 10:41 270 5.0
2017-Dec-16 10:30 270 4.4
2017-Dec-16 10:20 273 3.9
2017-Dec-16 10:10 225 0 gusting 1 3.3
2017-Dec-16 10:00 225 0 gusting 1 2.8
2017-Dec-16 09:50 225 0 gusting 0 1.7
2017-Dec-16 09:40 1.1
2017-Dec-16 09:31 0.6
2017-Dec-16 09:21 -0.0
2017-Dec-16 09:10 225 -0.0
2017-Dec-16 09:01 -0.0